Regional Weather Roundup
Issued by NWS State College, PA

Home | Current Version | Previous Version | Graphics & Text | Print | Product List | Glossary On
Versions: 1 2 3 4 5 6 7 8 9 10 11 12 13 14 15 16 17 18 19 20 21 22 23 24 25 26 27 28 29 30 31 32 33 34 35 36 37 38 39 40 41 42 43 44 45 46 47 48 49 50
000
ASUS41 KCTP 232303
RWRCTP

REGIONAL WEATHER ROUNDUP
NATIONAL WEATHER SERVICE STATE COLLEGE PA
700 PM EDT TUE AUG 23 2016

Note: "fair" indicates few or no clouds below 12,000 feet with no
significant weather and/or obstructions to visibility.

* = STATION THAT DOES NOT REPORT PRECIPITATION /E.G. RAIN...SNOW...ETC/
    THUNDER OR FOG.

PAZ002>004-007>009-013>016-020>023-029>032-240000-
WESTERN PENNSYLVANIA

CITY           SKY/WX    TMP DP  RH WIND       PRES   REMARKS
ERIE           SUNNY     76  60  57 N5        30.24S
MEADVILLE      CLOUDY    74  56  53 SW5       30.27S
FRANKLIN*      CLOUDY    73  57  56 S5        30.28F
NEW CASTLE     FAIR      78  59  51 CALM      30.26F
BEAVER COUNTY  SUNNY     77  59  53 S3        30.27S
BUTLER*        NOT AVBL
PITTSBURGH INT PTSUNNY   78  54  43 CALM      30.26F
PITTSBURGH     SUNNY     79  56  45 SW6       30.25F
INDIANA*       SUNNY     77  61  57 CALM      30.30F
LATROBE        MOSUNNY   77  59  53 CALM      30.27F
WASHINGTON CO* SUNNY     79  59  50 CALM      30.27S
$$

PAZ004>006-010>012-017>019-024>028-033>037-041-042-045-046-049>053-240000-
CENTRAL PENNSYLVANIA

CITY           SKY/WX    TMP DP  RH WIND       PRES   REMARKS
BRADFORD       SUNNY     74  56  53 W3        30.30S
DUBOIS         SUNNY     75  55  49 SW6       30.28F
CLEARFIELD     SUNNY     77  56  48 W3        30.28F
JOHNSTOWN      SUNNY     74  57  55 SW6       30.31F
ALTOONA        MOSUNNY   76  59  55 S5        30.29F
STATE COLLEGE  CLEAR     75  59  57 SW5       30.27F
WILLIAMSPORT   CLEAR     79  58  48 S5        30.22F
SELINSGROVE    CLEAR     75  64  68 CALM      30.24F
FT INDIANTOWN  PTCLDY    78  61  54 N2        30.25F
CAPITAL CITY   CLEAR     80  57  45 S6        30.24F
HARRISBURG     PTCLDY    78  68  71 SW3       30.24F
YORK           CLEAR     79  58  48 S3        30.25F
$$

PAZ038>040-043-044-047-048-054-055-060>062-067>071-240000-
EASTERN PENNSYLVANIA

CITY           SKY/WX    TMP DP  RH WIND       PRES   REMARKS
SCRANTON       CLEAR     76  54  46 SW9       30.27S
MOUNT POCONO   CLEAR     70  50  49 W7        30.31S
ALLENTOWN      CLEAR     77  57  50 SW7       30.26S
QUAKERTOWN*    CLEAR     77  54  44 CALM      30.28S
READING        CLEAR     79  55  43 CALM      30.25F
LANCASTER      CLEAR     79  58  48 NW3       30.25F
COATESVILLE    CLEAR     77  57  50 W5        30.29F
POTTSTOWN      CLEAR     77  55  46 CALM      30.28S
BLUE BELL      CLEAR     77  52  41 CALM      30.26S
DOYLESTOWN     CLEAR     80  53  39 NW5       30.25F
WILLOW GROVE   NOT AVBL
NORTH PHILA    CLEAR     81  51  35 NW7       30.26F
PHILADELPHIA   PTCLDY    81  53  37 NW9       30.26S
$$




USA.gov is the U.S. government's official web portal to all federal, state and local government web resources and services.